Date String (YYYY-MM-DD hh:mm:ss) UTC,Instrument flags,absolute air pressure of the measurement (hPa),sample flow rate (lpm),inlet stack bypass flow (lpm),air temperature of the measurement (°C),ambient temperature measured by the external sensor (°C),aerosol sample conditioner tube jacket temperature (°C),OPC LED temperature (°C),internal box temperature (°C),relative humidity of the measurement (%),span deviation,mass concentration of particles derived from Lorenz-Mie calculation of OPC scattering (μg/m³),mass concentration of particles derived from Lorenz-Mie calculation of OPC scattering (μg/m³),mass concentration of particles derived from Lorenz-Mie calculation of OPC scattering (μg/m³)
DateTimeUTC,F1_M11,P_M11,Q1_M11,Q2_M11,T1_M11,T2_M11,T3_M11,T4_M11,T5_M11,U1_M11,ZSPAN_M11,X0_M11,X2_M11,X1_M11
2024-01-02 14:00:00,SystemResetWarning,0833.5,5.00,000.00,021.3,020.1,000.0,029.7,022.6,13.8,0000.0,0008.00,0003.65,0003.38
2024-01-02 14:01:00,SystemResetWarning,0833.6,5.00,000.00,021.3,020.0,000.0,029.7,022.6,13.8,0000.0,0007.33,0003.63,0003.35
2024-01-02 14:02:00,SystemResetWarning,0833.5,5.00,000.00,021.3,020.0,000.0,029.7,022.6,13.8,0000.0,0007.15,0003.60,0003.32
2024-01-02 14:03:00,SystemResetWarning,0833.5,5.00,000.00,021.3,020.0,000.0,029.7,022.6,13.8,0000.0,0007.01,0003.58,0003.29
2024-01-02 14:04:00,SystemResetWarning,0833.5,5.01,000.00,021.3,020.0,000.0,029.7,022.6,13.8,0000.0,0007.06,0003.57,0003.27
2024-01-02 14:05:00,SystemResetWarning,0833.6,5.00,000.00,021.2,020.0,000.0,029.7,022.5,13.8,0000.0,0007.13,0003.55,0003.25
2024-01-02 14:06:00,SystemResetWarning,0833.5,5.00,000.00,021.2,020.0,000.0,029.6,022.5,13.8,0000.0,0006.91,0003.53,0003.22
2024-01-02 14:07:00,SystemResetWarning,0833.5,5.00,000.00,021.2,019.9,000.0,029.6,022.5,13.7,0000.0,0006.54,0003.50,0003.20
2024-01-02 14:08:00,SystemResetWarning,0833.5,5.00,000.00,021.2,019.9,000.0,029.6,022.5,13.8,0000.0,0006.26,0003.48,0003.18
2024-01-02 14:09:00,SystemResetWarning,0833.5,4.99,000.00,021.2,019.9,000.0,029.6,022.5,13.8,0000.0,0006.04,0003.46,0003.15
2024-01-02 14:10:00,SystemResetWarning,0833.5,4.99,000.00,021.1,019.9,000.0,029.6,022.5,13.8,0000.0,0006.40,0003.44,0003.12
2024-01-02 14:11:00,SystemResetWarning,0833.5,5.00,000.00,021.1,019.8,000.0,029.6,022.4,13.8,0000.0,0006.89,0003.46,0003.12
2024-01-02 14:12:00,SystemResetWarning,0833.5,5.00,000.00,021.1,019.8,000.0,029.6,022.4,13.8,0000.0,0006.94,0003.46,0003.12
2024-01-02 14:13:00,SystemResetWarning,0833.5,5.00,000.00,021.1,019.8,000.0,029.5,022.4,13.8,0000.0,0006.96,0003.44,0003.12
2024-01-02 14:14:00,SystemResetWarning,0833.6,5.01,000.00,021.1,019.8,000.0,029.5,022.4,13.8,0000.0,0007.02,0003.43,0003.10
2024-01-02 14:15:00,SystemResetWarning,0833.5,5.00,000.00,021.1,019.7,000.0,029.5,022.3,13.8,0000.0,0007.02,0003.42,0003.10
2024-01-02 14:16:00,SystemResetWarning,0833.6,5.00,000.00,021.0,019.7,000.0,029.5,022.3,13.8,0000.0,0007.09,0003.43,0003.09
2024-01-02 14:17:00,SystemResetWarning,0833.6,5.00,000.00,021.0,019.7,000.0,029.5,022.3,13.8,0000.0,0007.09,0003.43,0003.09
2024-01-02 14:18:00,SystemResetWarning,0833.5,4.99,000.00,021.0,019.7,000.0,029.5,022.3,13.8,0000.0,0007.30,0003.48,0003.11
2024-01-02 14:19:00,SystemResetWarning,0833.6,5.00,000.00,021.0,019.7,000.0,029.4,022.2,13.8,0000.0,0007.50,0003.51,0003.12
2024-01-02 14:20:00,SystemResetWarning,0833.6,5.00,000.00,021.0,019.6,000.0,029.4,022.2,13.9,0000.0,0007.67,0003.54,0003.15
2024-01-02 14:21:00,SystemResetWarning,0833.5,4.99,000.00,020.9,019.6,000.0,029.4,022.2,13.9,0000.0,0007.01,0003.56,0003.18
2024-01-02 14:22:00,SystemResetWarning,0833.5,5.00,000.00,020.9,019.6,000.0,029.4,022.2,13.9,0000.0,0006.56,0003.57,0003.19
2024-01-02 14:23:00,SystemResetWarning,0833.5,5.00,000.00,020.9,019.6,000.0,029.4,022.2,14.0,0000.0,0006.45,0003.55,0003.19
2024-01-02 14:24:00,SystemResetWarning,0833.5,5.00,000.00,020.9,019.5,000.0,029.4,022.1,14.0,0000.0,0006.36,0003.55,0003.21
2024-01-02 14:25:00,SystemResetWarning,0833.5,5.00,000.00,020.9,019.5,000.0,029.3,022.1,14.0,0000.0,0006.31,0003.56,0003.23
2024-01-02 14:26:00,SystemResetWarning,0833.5,5.01,000.00,020.8,019.5,000.0,029.3,022.1,14.0,0000.0,0006.55,0003.58,0003.25
2024-01-02 14:27:00,SystemResetWarning,0833.5,5.00,000.00,020.8,019.5,000.0,029.3,022.1,14.1,0000.0,0006.68,0003.60,0003.27
2024-01-02 14:28:00,SystemResetWarning,0833.4,5.00,000.00,020.8,019.4,000.0,029.3,022.1,14.1,0000.0,0006.74,0003.61,0003.28
2024-01-02 14:29:00,SystemResetWarning,0833.4,5.00,000.00,020.8,019.4,000.0,029.3,022.1,14.1,0000.0,0006.69,0003.60,0003.28
2024-01-02 14:30:00,SystemResetWarning,0833.4,4.99,000.00,020.8,019.4,000.0,029.3,022.1,14.2,0000.0,0006.48,0003.58,0003.27
2024-01-02 14:31:00,SystemResetWarning,0833.4,4.99,000.00,020.8,019.4,000.0,029.2,022.0,14.2,0000.0,0006.15,0003.57,0003.27
2024-01-02 14:32:00,SystemResetWarning,0833.5,5.00,000.00,020.8,019.4,000.0,029.2,022.0,14.2,0000.0,0005.86,0003.55,0003.26
2024-01-02 14:33:00,SystemResetWarning,0833.5,5.00,000.00,020.8,019.4,000.0,029.2,022.0,14.3,0000.0,0005.76,0003.53,0003.25
2024-01-02 14:34:00,SystemResetWarning,0833.5,5.00,000.00,020.7,019.4,000.0,029.2,022.0,14.3,0000.0,0005.85,0003.56,0003.26
2024-01-02 14:35:00,SystemResetWarning,0833.5,5.00,000.00,020.7,019.4,000.0,029.2,022.0,14.3,0000.0,0005.98,0003.58,0003.26
2024-01-02 14:36:00,SystemResetWarning,0833.5,5.00,000.00,020.7,019.4,000.0,029.2,022.0,14.3,0000.0,0006.15,0003.60,0003.25
2024-01-02 14:37:00,SystemResetWarning,0833.5,5.00,000.00,020.7,019.4,000.0,029.1,021.9,14.4,0000.0,0006.49,0003.59,0003.24
2024-01-02 14:38:00,SystemResetWarning,0833.5,5.00,000.00,020.7,019.3,000.0,029.1,021.9,14.4,0000.0,0006.12,0003.57,0003.23
2024-01-02 14:39:00,SystemResetWarning,0833.5,5.00,000.00,020.7,019.4,000.0,029.1,021.9,14.5,0000.0,0005.97,0003.54,0003.22
2024-01-02 14:40:00,SystemResetWarning,0833.4,5.00,000.00,020.7,019.3,000.0,029.1,021.9,14.5,0000.0,0005.91,0003.55,0003.22
2024-01-02 14:41:00,SystemResetWarning,0833.5,5.00,000.00,020.6,019.3,000.0,029.1,021.9,14.5,0000.0,0005.78,0003.54,0003.22
2024-01-02 14:42:00,SystemResetWarning,0833.5,5.00,000.00,020.6,019.3,000.0,029.1,021.9,14.5,0000.0,0005.75,0003.52,0003.21
2024-01-02 14:43:00,SystemResetWarning,0833.4,5.00,000.00,020.6,019.3,000.0,029.1,021.9,14.5,0000.0,0005.74,0003.52,0003.21
2024-01-02 14:44:00,SystemResetWarning,0833.4,5.00,000.00,020.6,019.3,000.0,029.0,021.9,14.5,0000.0,0006.02,0003.55,0003.22
2024-01-02 14:45:00,SystemResetWarning,0833.5,5.00,000.00,020.6,019.3,000.0,029.0,021.8,14.5,0000.0,0005.98,0003.54,0003.22
2024-01-02 14:46:00,SystemResetWarning,0833.4,5.00,000.00,020.6,019.3,000.0,029.0,021.9,14.6,0000.0,0005.84,0003.54,0003.24
2024-01-02 14:47:00,SystemResetWarning,0833.4,5.00,000.00,020.6,019.3,000.0,029.0,021.8,14.6,0000.0,0005.87,0003.55,0003.25
2024-01-02 14:48:00,SystemResetWarning,0833.4,5.01,000.00,020.5,019.3,000.0,029.0,021.8,14.7,0000.0,0005.55,0003.56,0003.25
2024-01-02 14:49:00,SystemResetWarning,0833.4,5.01,000.00,020.5,019.2,000.0,029.0,021.8,14.6,0000.0,0006.28,0003.59,0003.27
2024-01-02 14:50:00,SystemResetWarning,0833.4,5.01,000.00,020.5,019.2,000.0,029.0,021.8,14.6,0000.0,0006.35,0003.61,0003.28
2024-01-02 14:51:00,SystemResetWarning,0833.4,5.00,000.00,020.5,019.2,000.0,029.0,021.8,14.6,0000.0,0006.90,0003.62,0003.28
2024-01-02 14:52:00,SystemResetWarning,0833.4,5.01,000.00,020.5,019.2,000.0,028.9,021.8,14.6,0000.0,0007.54,0003.63,0003.29
2024-01-02 14:53:00,SystemResetWarning,0833.4,5.00,000.00,020.5,019.2,000.0,028.9,021.8,14.6,0000.0,0007.60,0003.63,0003.29
2024-01-02 14:54:00,SystemResetWarning,0833.4,5.00,000.00,020.5,019.2,000.0,028.9,021.8,14.6,0000.0,0008.26,0003.65,0003.29
2024-01-02 14:55:00,SystemResetWarning,0833.4,4.99,000.00,020.5,019.2,000.0,028.9,021.8,14.6,0000.0,0008.23,0003.64,0003.29
2024-01-02 14:56:00,SystemResetWarning,0833.4,4.99,000.00,020.5,019.2,000.0,028.9,021.8,14.7,0000.0,0008.24,0003.64,0003.29
2024-01-02 14:57:00,SystemResetWarning,0833.4,5.00,000.00,020.5,019.2,000.0,028.9,021.8,14.7,0000.0,0008.28,0003.65,0003.29
2024-01-02 14:58:00,SystemResetWarning,0833.4,5.01,000.00,020.4,019.2,000.0,028.9,021.7,14.8,0000.0,0008.26,0003.66,0003.30
2024-01-02 14:59:00,SystemResetWarning,0833.4,5.00,000.00,020.4,019.2,000.0,028.9,021.7,14.8,0000.0,0008.23,0003.66,0003.30
